Location: ???????
(38.3360°N, 23.6977°E)
Time: 21:41:11
(UTC+00:00)

SL-4 R/B - Pass Details

Date: 17 November 2025
Orbit: 386 x 525 km, 51.6° (Epoch: 12 December)

Event Time Altitude Azimuth Distance (km) Brightness Sun altitude
Rises 15:45:40 0° 297° (WNW) 2,375 6.0 -7.1°
Reaches altitude 10° 15:47:59 10° 282° (WNW) 1,533 5.3 -7.6°
Maximum altitude 15:50:47 23° 228° (SW) 983 4.3 -8.1°
Drops below altitude 10° 15:53:42 10° 173° (S) 1,594 4.5 -8.6°
Sets 15:56:10 0° 159° (SSE) 2,496 5.3 -9.1°
